Weather in Chuchkovo

Russia / Ryazan Oblast     54°16′07″N   41°26′46″E
temp.,
°C
wind,
m/s
gust,
m/s
humid.,
%
clouds,
%
prec.,
mm/h
press.,
hPa
HPBL,
m
4 march, thu
thu400:00−2w71394100 0.1 1009657
03:00−2wsw71393100 0.3 1007648
06:00−1wsw71393100 0.1 1004720
09:000w101693100 1.6 1002858
12:000wsw9159198 0.0 1001828
15:000wsw8139499 0.2 1000893
18:00−1wsw61197100 0.8 1000608
21:00−1w4898100 2.2 1000403
5 march, fri
fri500:00−4n3597100 1.4 1000208
03:00−5nw3697100 1.9 1002162
06:00−9nw349669 0.0 100452
09:00−8nw359435 0.0 1007157
12:00−4wnw349028 0.0 1008410
15:00−3w468862 0.0 1009621
18:00−7w479350 0.0 1010129
21:00−9w449126 0.0 101367
6 march, sat
sat600:00−11wnw34890 0.0 101436
03:00−12nw23910 0.0 101521
06:00−14nnw22930 0.0 101620
09:00−12n22930 0.0 101781
12:00−8nne22790 0.0 1017331
15:00−7ene12765 0.0 1016396
18:00−12s12880 0.0 101621
21:00−11sw239423 0.0 101733
7 march, sun
sun700:00−11sw349692 0.1 101687
03:00−12sw469789 0.2 1014103
06:00−12sw6129078 0.0 1011267
09:00−8sw9178689 0.1 1008700
12:00−5sw111782100 0.3 10041078
15:00−4sw111993100 1.7 9991324
18:00−3wsw111794100 2.1 9971155
21:00−8w51279100 3.0 1000468
8 march, mon
mon800:00−12wsw5108133 0.0 1002154
03:00−10sw7158517 0.0 1000319
06:00−9sw715860 0.0 998381
09:00−7wsw10169318 0.3 9971174
12:00−8wnw91289100 0.5 10001065
15:00−7wnw91480100 0.7 10041416
18:00−9wnw61290100 0.1 1007514
21:00−11wnw4995100 0.2 1010234